Location: Slidell
(30.2789°N, 89.7378°W)
Time: 22:39:50
(UTC-05:00)

Daily predictions for brighter satellites

Satellite Brightness Start Highest point End
(mag) Time Altitude Azimuth Time Altitude Azimuth Time Altitude Azimuth
Cosmos 1939 Rocket 4.4 20:28:14 10° ESE 20:31:13 21° ENE 20:34:13 10° NNE
Cosmos 407 Rocket 3.8 20:26:07 10° SSW 20:31:13 73° WNW 20:36:20 10° NNE
SJ-6B 4.2 20:29:48 10° SSW 20:33:25 38° W 20:36:59 10° NNW
Cosmos 1821 Rocket 4.1 20:27:32 10° N 20:33:55 71° E 20:40:14 10° SSE
Cosmos 1378 3.2 20:32:59 10° S 20:36:44 88° W 20:40:31 10° N
Resurs 1-3 3.6 20:33:36 10° SSE 20:37:58 76° ENE 20:42:20 10° N
Iridium 2 4.4 20:34:15 10° NNW 20:38:00 57° W 20:41:44 10° S
Cosmos 1340 Rocket 3.9 20:37:51 10° SSE 20:41:11 26° E 20:44:32 10° NE
Cosmos 1954 Rocket 3.9 20:39:27 10° S 20:44:39 77° ESE 20:49:50 10° NNE
Meteor 2-5 Rocket 4.0 20:38:54 10° S 20:44:45 81° W 20:50:31 10° N
ATLAS 5 CENTAUR R/B 2.0 20:40:30 10° S 20:44:47 44° ESE 20:49:20 10° NE
Cosmos 1934 Rocket 4.0 20:41:57 10° N 20:48:04 70° E 20:54:06 10° SSE
OAO 1 Rocket 4.4 20:43:02 10° WSW 20:48:24 83° SSE 20:53:46 10° ENE
Cosmos 1980 4.1 20:43:00 10° N 20:48:31 50° ENE 20:53:47 11° SE
Cosmos 2084 3.8 20:47:23 10° S 20:51:12 36° ESE 20:54:51 10° NE
Skynet4D Del rocket 3.9 20:45:39 10° W 20:51:19 64° S 20:57:37 11° ESE
Cosmos 614 Rocket 4.1 20:46:52 10° S 20:51:57 57° ESE 20:57:03 10° NNE
YAOGAN 6 4.0 20:51:00 13° ESE 20:53:16 22° ENE 20:56:09 10° NNE
Palapa 6 Rocket 4.1 20:49:47 10° WSW 20:54:32 32° S 20:57:44 15° ESE
GPS 2-05 Rocket1 4.2 20:53:45 10° S 20:55:43 16° SSE 20:56:03 16° SE
Helios 1A 3.5 20:52:06 11° SE 20:55:45 41° ENE 20:59:39 10° N
CZ-4B DEB 4.0 20:54:45 15° ESE 20:56:16 22° ENE 20:58:38 10° NNE
Cosmos 1605 Rocket 4.2 20:52:17 10° N 20:58:27 57° E 21:04:39 10° SSE
Cosmos 2237 Rocket 2.4 20:53:24 10° N 20:58:55 57° ENE 21:03:42 14° SE
CZ-3B R/B 2.9 20:57:34 10° SSW 20:59:38 48° ESE 21:04:06 10° NE
Helios 1B rocket 2.4 20:56:17 10° NNE 21:00:26 70° ESE 21:04:32 10° S
ATLAS 2A CENTAUR R/B 4.4 20:52:56 10° W 21:00:47 77° S 21:36:11 10° E
Cosmos 1470 4.5 20:58:34 10° NNW 21:02:08 33° W 21:05:39 10° SSW
USA 234 3.3 20:56:53 10° NE 21:03:18 58° SE 21:09:42 10° SSW
Atlas Centaur 2 0.9 21:00:04 10° W 21:03:46 87° N 21:06:40 15° E
Cosmos 1842 Rocket 3.6 21:00:10 10° N 21:04:28 57° E 21:08:11 13° SSE
ERS-1 Rocket 4.2 21:01:43 15° ESE 21:04:44 25° ENE 21:08:50 10° NNE
USA 142 4.5 20:53:11 10° W 21:04:45 79° S 21:08:05 15° E
Cosmos 2227 Rocket 3.5 21:02:20 10° SW 21:07:41 44° WNW 21:13:04 10° N
Sakura Rocket 4.3 20:59:22 10° WSW 21:08:02 65° S 21:14:11 10° E
Meteor 1-24 Rocket 4.0 21:04:12 10° S 21:10:11 80° W 21:16:01 10° N
Cosmos 1727 Rocket 4.0 21:04:20 10° S 21:10:36 78° E 21:16:57 10° N
Lacrosse 4 Rocket 4.1 21:07:32 10° WSW 21:10:56 24° WNW 21:14:25 10° N
SL-19 R/B 4.3 21:07:03 10° SSE 21:12:53 89° WSW 21:18:30 10° NNW
Cosmos 1241 Rocket 4.5 21:06:42 10° NNW 21:13:04 88° ENE 21:18:10 16° SSE
Cosmos 1741 Rocket 4.0 21:08:26 10° S 21:13:40 61° ESE 21:18:54 10° NNE
OAO 3 Rocket 3.8 21:09:28 10° W 21:13:53 43° SSW 21:16:41 20° SSE
Cosmos 1674 3.7 21:12:38 22° SE 21:13:54 27° E 21:17:06 10° NNE
Cosmos 1184 Rocket 2.9 21:13:45 10° S 21:17:04 79° W 21:20:26 10° N
In-Cosmos 22 4.2 21:15:36 10° S 21:21:15 88° W 21:27:01 10° N
SEDSat Delta rocket 3.1 21:17:55 10° W 21:22:17 55° SSW 21:24:14 28° SE
SL-16 R/B 3.0 21:17:10 10° N 21:22:20 35° ENE 21:25:10 22° ESE
ARGOS 4.4 21:20:18 18° ESE 21:22:38 24° ENE 21:26:55 10° NNE
NOSS 3-4 (A) 4.0 21:21:40 10° NNW 21:28:49 66° ENE 21:33:42 24° SE
NOSS 3-4 (C) 4.0 21:21:46 10° NNW 21:28:55 65° ENE 21:33:47 24° SE
Cosmos 1356 Rocket 3.8 21:27:26 27° SSE 21:29:14 44° E 21:33:17 10° NNE
Cosmos 1076 Rocket 3.8 21:27:30 26° SSE 21:29:38 47° E 21:33:50 10° NNE
SAR-Lupe-4 3.5 21:32:54 30° S 21:34:35 84° WSW 21:38:10 10° NNW
Chunghua 1 4.4 21:31:53 10° WNW 21:35:40 75° SSW 21:36:45 43° SE
Aureole 2 Rocket 4.2 21:36:32 10° NW 21:40:09 33° W 21:42:39 16° SSW
Meteor 2-1 Rocket 4.3 21:34:31 10° N 21:40:20 84° W 21:44:21 20° S
Cosmos 2219 Rocket 3.8 21:35:40 10° NW 21:40:28 29° WSW 21:45:14 10° SSW
Okean 3 Rocket 3.6 21:36:55 14° S 21:40:43 84° W 21:45:13 10° N
Cosmos 2333 Rocket 3.5 21:37:43 10° NW 21:42:47 35° WSW 21:47:45 10° SSW
Envisat 4.3 21:42:25 10° SSW 21:47:02 35° W 21:51:40 10° NNW
Cosmos 2221 2.4 21:42:52 10° N 21:47:16 73° E 21:48:41 42° SSE
NOAA 11 4.2 21:46:09 33° SSE 21:48:36 66° ENE 21:53:58 10° N
Cosmos 2227 4.2 21:45:58 16° S 21:50:34 64° ESE 21:56:14 10° NNE
Cosmos 2208 Rocket 4.4 21:47:43 10° N 21:52:54 49° ENE 21:54:24 38° ESE
SL-08 RB Rocket 4.3 21:56:04 37° E 21:56:33 38° ENE 22:00:47 10° N
SL-8 R/B 3.9 21:51:52 10° NW 21:56:34 59° SW 21:57:47 44° S
SPOT 1/Viking Rocket 4.3 21:56:35 31° E 21:57:26 33° ENE 22:02:01 10° N
YAOGAN 11 4.5 21:58:18 45° E 21:58:52 48° ENE 22:03:12 10° N
Cosmos 1766 Rocket 3.4 21:58:37 55° SSE 21:59:27 72° E 22:03:46 10° N
Meteor 1-21 Rocket 4.3 21:57:46 18° SSW 22:02:08 79° W 22:07:47 10° N
Cosmos 1242 Rocket 2.6 21:59:00 10° N 22:02:30 64° ENE 22:02:30 64° ENE
USA 245 3.9 22:03:34 35° NE 22:03:34 35° NE 22:06:11 10° N
Cosmos 1570 Rocket 3.9 22:02:09 10° NNW 22:07:27 78° ENE 22:08:43 52° SSE
SL-14 R/B 4.4 22:10:43 32° NE 22:10:43 32° NE 22:13:15 10° NNE
Milstar 3 Cent rocket 3.8 22:02:29 10° W 22:10:07 67° SSW 22:18:44 29° ESE
Cosmos 2228 Rocket 4.4 22:11:13 10° NNE 22:14:28 28° ENE 22:14:28 28° ENE
Cosmos 1743 Rocket 4.4 22:16:55 37° NE 22:16:55 37° NE 22:20:02 10° NNE
H-2A R/B 4.2 22:17:20 14° NE 22:17:20 14° NE 22:18:57 10° NNE
MetOp-B 4.2 22:17:12 45° S 22:18:50 73° WSW 22:24:11 10° NNW
STPSAT 2 (USA 217) 4.4 22:19:23 82° SSE 22:19:31 84° ESE 22:24:05 10° NNE
Cosmos 2263 Rocket 3.2 22:21:44 30° ENE 22:21:44 30° ENE 22:25:17 10° NE
Delta 2 Rocket 4.0 22:17:02 10° WSW 22:22:48 81° SSE 22:25:01 39° ENE
Cosmos 1300 4.2 22:22:50 10° N 22:25:01 28° NNE 22:25:01 28° NNE
Cosmos 1459 Rocket 4.2 22:21:01 10° NNW 22:27:14 68° W 22:29:36 39° SSW
Cosmos 2100 Rocket 4.3 22:21:10 10° NNW 22:27:23 62° W 22:30:08 34° SSW
Cosmos 2061 Rocket 4.1 22:22:03 10° N 22:28:25 75° W 22:30:43 42° SSW
SPOT 5 2.7 22:28:20 72° SSW 22:28:44 78° WSW 22:33:41 10° NNW
Cosmos 2123 Rocket 3.9 22:30:35 51° S 22:32:19 90° W 22:38:31 10° N
Cosmos 1726 3.4 22:31:11 10° N 22:33:27 36° N 22:33:27 36° N
Meteor 2-10 4.3 22:32:05 10° N 22:37:39 58° E 22:37:39 58° E
Lacrosse 5 3.3 22:33:29 10° NNW 22:37:41 26° NE 22:38:08 25° NE
H-2A R/B 1.9 22:41:25 82° S 22:41:39 87° W 22:47:03 10° NNW
Cosmos 468 Rocket 4.0 22:36:58 10° N 22:41:43 66° NE 22:41:43 66° NE
Skynet4D Del rocket 4.5 22:37:58 10° W 22:43:13 43° SSW 22:43:13 43° SSW
Cosmos 371 Rocket 4.2 22:40:41 10° N 22:44:22 39° NE 22:44:22 39° NE
Cosmos 1603 3.7 22:43:49 10° NNW 22:49:18 69° ENE 22:49:18 69° ENE
Atlas Centaur 2 3.7 22:48:50 10° W 22:49:18 13° W 22:49:18 13° W
Cosmos 1818 4.2 22:51:51 10° NW 22:56:55 45° WSW 22:56:55 45° WSW
Landsat 7 4.3 22:59:49 59° NNW 22:59:49 59° NNW 23:03:43 10° NNW
Cosmos 1725 Rocket 3.9 22:55:51 10° N 23:02:04 74° W 23:02:34 70° SW
Sakura Rocket 3.9 22:55:30 10° W 23:01:39 62° WSW 23:01:39 62° WSW
ARGOS 4.3 23:01:49 31° WSW 23:02:38 33° W 23:07:28 10° NW
IUS-18 SRM-1 4.5 22:15:09 10° W 23:03:34 75° SSW 23:05:45 55° SE
SL-16 R/B 3.8 23:01:46 10° NW 23:06:09 24° W 23:07:04 23° WSW
Cosmos 1943 3.9 23:01:16 10° N 23:05:59 43° NE 23:05:59 43° NE
Terra 2.7 23:15:15 47° NNW 23:15:15 47° NNW 23:18:40 10° NNW
CZ-4B R/B 4.4 23:09:33 10° NNE 23:13:10 44° NNE 23:13:10 44° NNE
CZ-2C R/B 4.5 23:35:08 10° NNE 23:37:05 21° NE 23:37:05 21° NE
H-2A R/B 4.4 23:54:27 20° NW 23:54:27 20° NW 23:56:04 10° NNW
